Mayport NS, FL

5:45 PM EDT on April 24, 2017 (GMT -0400)
Mayport Naval Station / Adm. David L. McDonald Field

Weather History for KNRB - February, 2013

Change the Weather History Date:

Monday, February 18, 2013

  Actual Average Record
Temperature  
Mean Temperature 44 °F -  
Max Temperature 59 °F 64 °F 77 °F (1999)
Min Temperature 30 °F 50 °F 30 °F (2013)
Degree Days  
Heating Degree Days 20    
Moisture  
Dew Point 35 °F    
Average Humidity 61    
Maximum Humidity 89    
Minimum Humidity 35    
Precipitation  
Precipitation 0.00 in - - ()
Sea Level Pressure  
Sea Level Pressure 30.35 in    
Wind  
Wind Speed 3 mph (East)    
Max Wind Speed 9 mph    
Max Gust Speed -    
Visibility 10 miles    
Events      
Averages and records for this station are not official NWS values.
T = Trace of Precipitation, MM = Missing Value Source: NWS Daily Summary

Daily Weather History Graph

Daily Weather History Graph

Search for Another Location

Airport or City:

Trip Planner

Search our weather history database for the weather conditions in past years. The results will help you decide how hot, cold, wet, or windy it might be!

Date:

Astronomy

Feb. 18, 2013 Rise Set
Actual Time 7:02 AM EST 6:16 PM EST
Civil Twilight 6:38 AM EST 6:41 PM EST
Nautical Twilight 6:10 AM EST 7:09 PM EST
Astronomical Twilight 5:42 AM EST 7:37 PM EST
Moon 12:13 PM EST (2/18) 1:30 AM EST (2/18)
Length of Visible Light 12h 02m
Length of Day
11h 13m
First Quarter, 58% of the Moon is Illuminated
Feb 18
First Quarter
Feb 25
Full
Mar 4
Last Quarter
Mar 11
New
Mar 19
First Quarter

Hourly Weather History & Observations

Time (EST) Temp. Windchill Dew Point Humidity Pressure Visibility Wind Dir Wind Speed Gust Speed Precip Events Conditions
12:52 AM 39.0 °F - 23.0 °F 53% 30.37 in 10.0 mi Calm Calm - N/A   Clear
1:52 AM 36.0 °F 33.3 °F 28.0 °F 73% 30.37 in 10.0 mi WSW 3.5 mph - N/A   Clear
2:52 AM 34.0 °F - 27.0 °F 75% 30.36 in 10.0 mi Calm Calm - N/A   Clear
3:52 AM 33.1 °F - 28.0 °F 82% 30.35 in 10.0 mi Calm Calm - N/A   Clear
4:52 AM 33.1 °F - 28.9 °F 85% 30.36 in 10.0 mi Calm Calm - N/A   Clear
5:52 AM 30.9 °F - 28.0 °F 89% 30.38 in 10.0 mi Calm Calm - N/A   Clear
6:52 AM 37.0 °F 34.5 °F 32.0 °F 82% 30.39 in 10.0 mi West 3.5 mph - N/A   Clear
7:52 AM 41.0 °F 39.0 °F 28.0 °F 60% 30.40 in 10.0 mi NW 3.5 mph - N/A   Clear
8:52 AM 48.0 °F - 30.9 °F 52% 30.40 in 10.0 mi Calm Calm - N/A   Clear
9:52 AM 53.1 °F - 26.1 °F 35% 30.41 in 10.0 mi ENE 8.1 mph - N/A   Clear
10:52 AM 55.9 °F - 30.0 °F 37% 30.43 in 10.0 mi ENE 8.1 mph - N/A   Clear
11:52 AM 57.0 °F - 30.9 °F 37% 30.43 in 10.0 mi NE 4.6 mph - N/A   Clear
12:52 PM 57.9 °F - 33.1 °F 39% 30.39 in 10.0 mi ENE 6.9 mph - N/A   Clear
1:52 PM 57.9 °F - 34.0 °F 41% 30.37 in 10.0 mi ENE 6.9 mph - N/A   Clear
2:52 PM 59.0 °F - 36.0 °F 42% 30.35 in 10.0 mi East 9.2 mph - N/A   Clear
3:52 PM 57.9 °F - 37.9 °F 47% 30.34 in 10.0 mi East 5.8 mph - N/A   Clear
4:52 PM 57.0 °F - 39.0 °F 51% 30.34 in 10.0 mi East 8.1 mph - N/A   Clear
5:52 PM 55.0 °F - 39.0 °F 55% 30.33 in 10.0 mi ENE 6.9 mph - N/A   Clear
6:52 PM 54.0 °F - 41.0 °F 62% 30.31 in 10.0 mi East 6.9 mph - N/A   Clear
7:52 PM 54.0 °F - 43.0 °F 66% 30.31 in 10.0 mi East 8.1 mph - N/A   Clear
8:52 PM 55.0 °F - 45.0 °F 69% 30.28 in 10.0 mi East 8.1 mph - N/A   Clear
9:52 PM 55.0 °F - 46.9 °F 74% 30.28 in 10.0 mi East 6.9 mph - N/A   Clear
10:52 PM 54.0 °F - 46.9 °F 77% 30.26 in 10.0 mi SE 5.8 mph - N/A   Clear
11:52 PM 55.0 °F - 48.0 °F 77% 30.25 in 10.0 mi SE 5.8 mph - N/A   Clear